TimeEST,TemperatureF,Dew PointF,Humidity,Sea Level PressureIn,VisibilityMPH,Wind Direction,Wind SpeedMPH,Gust SpeedMPH,PrecipitationIn,Events,Conditions,WindDirDegrees,DateUTC
12:53 AM,39.9,27.0,60,30.02,-9999.0,NNW,8.1,-,N/A,,Overcast,340,2012-11-05 05:53:00
1:53 AM,39.9,26.1,58,30.02,-9999.0,NNW,5.8,-,N/A,,Overcast,340,2012-11-05 06:53:00
2:53 AM,39.9,25.0,55,30.01,-9999.0,NNW,4.6,-,N/A,,Overcast,330,2012-11-05 07:53:00
5:53 AM,37.9,21.9,53,30.04,-9999.0,Variable,3.5,-,N/A,,Overcast,0,2012-11-05 10:53:00
7:53 AM,37.9,21.0,51,30.08,-9999.0,NNE,3.5,-,N/A,,Overcast,20,2012-11-05 12:53:00
8:53 AM,37.9,21.0,51,30.08,-9999.0,Variable,5.8,-,N/A,,Overcast,0,2012-11-05 13:53:00
9:53 AM,39.0,21.9,50,30.08,-9999.0,NW,8.1,-,N/A,,Overcast,310,2012-11-05 14:53:00
10:53 AM,41.0,24.1,51,30.08,-9999.0,North,6.9,-,N/A,,Overcast,350,2012-11-05 15:53:00
11:53 AM,43.0,21.9,43,30.06,-9999.0,NNE,6.9,-,N/A,,Mostly Cloudy,20,2012-11-05 16:53:00
12:53 PM,44.1,21.9,42,30.05,-9999.0,North,8.1,-,N/A,,Scattered Clouds,10,2012-11-05 17:53:00
1:53 PM,45.0,21.0,39,30.04,-9999.0,North,8.1,-,N/A,,Partly Cloudy,360,2012-11-05 18:53:00
2:53 PM,45.0,21.0,39,30.05,-9999.0,NNW,8.1,18.4,N/A,,Partly Cloudy,340,2012-11-05 19:53:00
3:53 PM,44.1,21.0,40,30.07,-9999.0,North,9.2,16.1,N/A,,Mostly Cloudy,350,2012-11-05 20:53:00
4:53 PM,39.9,21.0,47,30.10,10.0,NNW,5.8,-,N/A,,Mostly Cloudy,330,2012-11-05 21:53:00
5:53 PM,39.0,19.0,45,30.12,10.0,NNW,6.9,-,N/A,,Clear,340,2012-11-05 22:53:00
6:53 PM,37.9,18.0,45,30.14,10.0,Variable,3.5,-,N/A,,Clear,0,2012-11-05 23:53:00
7:53 PM,36.0,18.0,48,30.16,10.0,Variable,3.5,-,N/A,,Clear,0,2012-11-06 00:53:00
8:53 PM,35.1,17.1,48,30.19,10.0,Calm,Calm,-,N/A,,Clear,0,2012-11-06 01:53:00
9:53 PM,32.0,18.0,56,30.20,10.0,Calm,Calm,-,N/A,,Clear,0,2012-11-06 02:53:00
10:53 PM,30.0,19.9,66,30.20,10.0,Calm,Calm,-,N/A,,Clear,0,2012-11-06 03:53:00
11:53 PM,28.9,21.0,72,30.22,10.0,Calm,Calm,-,N/A,,Clear,0,2012-11-06 04:53:00